Time,TemperatureF,DewpointF,PressureIn,WindDirection,WindDirectionDegrees,WindSpeedMPH,WindSpeedGustMPH,Humidity,HourlyPrecipIn,Conditions,Clouds,dailyrainin,SoftwareType,DateUTC
2013-01-21 00:22:00,20.0,-1.0,-100.00,NNW,334,2.0,3.0,38,0.00,,,0.00,,2013-01-21 07:22:00,
2013-01-21 00:33:00,20.0,-1.0,-100.00,NNW,334,2.0,3.0,38,0.00,,,0.00,,2013-01-21 07:33:00,
2013-01-21 00:42:00,20.0,-1.0,-100.00,NNW,334,2.0,3.0,38,0.00,,,0.00,,2013-01-21 07:42:00,
2013-01-21 00:52:00,20.0,-1.0,-100.00,NNW,334,2.0,3.0,38,0.00,,,0.00,,2013-01-21 07:52:00,
2013-01-21 01:23:00,21.0,-2.0,-100.00,North,350,1.0,3.0,35,0.00,,,0.00,,2013-01-21 08:23:00,
2013-01-21 01:32:00,21.0,-2.0,-100.00,North,350,1.0,3.0,35,0.00,,,0.00,,2013-01-21 08:32:00,
2013-01-21 01:42:00,21.0,-2.0,-100.00,North,350,1.0,3.0,35,0.00,,,0.00,,2013-01-21 08:42:00,
2013-01-21 01:53:00,21.0,-2.0,-100.00,North,350,1.0,3.0,35,0.00,,,0.00,,2013-01-21 08:53:00,
2013-01-21 02:23:00,20.0,-2.0,-100.00,NNW,334,2.0,3.0,37,0.00,,,0.00,,2013-01-21 09:23:00,
2013-01-21 02:33:00,20.0,-2.0,-100.00,NNW,334,2.0,3.0,37,0.00,,,0.00,,2013-01-21 09:33:00,
2013-01-21 02:42:00,20.0,-2.0,-100.00,NNW,334,2.0,3.0,37,0.00,,,0.00,,2013-01-21 09:42:00,
2013-01-21 02:52:00,20.0,-2.0,-100.00,NNW,334,2.0,3.0,37,0.00,,,0.00,,2013-01-21 09:52:00,
2013-01-21 03:22:00,19.0,-2.0,-100.00,NNW,339,2.0,3.0,39,0.00,,,0.00,,2013-01-21 10:22:00,
2013-01-21 03:32:00,19.0,-2.0,-100.00,NNW,339,2.0,3.0,39,0.00,,,0.00,,2013-01-21 10:32:00,
2013-01-21 03:43:00,19.0,-2.0,-100.00,NNW,339,2.0,3.0,39,0.00,,,0.00,,2013-01-21 10:43:00,
2013-01-21 03:52:00,19.0,-2.0,-100.00,NNW,339,2.0,3.0,39,0.00,,,0.00,,2013-01-21 10:52:00,
2013-01-21 04:23:00,21.0,-2.0,-100.00,NW,315,2.0,8.0,35,0.00,,,0.00,,2013-01-21 11:23:00,
2013-01-21 04:33:00,21.0,-2.0,-100.00,NW,315,2.0,8.0,35,0.00,,,0.00,,2013-01-21 11:33:00,
2013-01-21 04:43:00,21.0,-2.0,-100.00,NW,315,2.0,8.0,35,0.00,,,0.00,,2013-01-21 11:43:00,
2013-01-21 04:53:00,21.0,-2.0,-100.00,NW,315,2.0,8.0,35,0.00,,,0.00,,2013-01-21 11:53:00,
2013-01-21 05:22:00,21.0,-2.0,-100.00,NW,312,3.0,6.0,36,0.00,,,0.00,,2013-01-21 12:22:00,
2013-01-21 05:33:00,21.0,-2.0,-100.00,NW,312,3.0,6.0,36,0.00,,,0.00,,2013-01-21 12:33:00,
2013-01-21 05:42:00,21.0,-2.0,-100.00,NW,312,3.0,6.0,36,0.00,,,0.00,,2013-01-21 12:42:00,
2013-01-21 05:52:00,21.0,-2.0,-100.00,NW,312,3.0,6.0,36,0.00,,,0.00,,2013-01-21 12:52:00,
2013-01-21 06:23:00,20.0,-1.0,-100.00,NNW,341,2.0,4.0,38,0.00,,,0.00,,2013-01-21 13:23:00,
2013-01-21 06:33:00,20.0,-1.0,-100.00,NNW,341,2.0,4.0,38,0.00,,,0.00,,2013-01-21 13:33:00,
2013-01-21 06:43:00,20.0,-1.0,-100.00,NNW,341,2.0,4.0,38,0.00,,,0.00,,2013-01-21 13:43:00,
2013-01-21 06:53:00,20.0,-1.0,-100.00,NNW,341,2.0,4.0,38,0.00,,,0.00,,2013-01-21 13:53:00,
2013-01-21 07:23:00,19.0,-2.0,-100.00,NW,317,2.0,3.0,38,0.00,,,0.00,,2013-01-21 14:23:00,
2013-01-21 07:32:00,19.0,-2.0,-100.00,NW,317,2.0,3.0,38,0.00,,,0.00,,2013-01-21 14:32:00,
2013-01-21 07:43:00,19.0,-2.0,-100.00,NW,317,2.0,3.0,38,0.00,,,0.00,,2013-01-21 14:43:00,
2013-01-21 07:53:00,19.0,-2.0,-100.00,NW,317,2.0,3.0,38,0.00,,,0.00,,2013-01-21 14:53:00,
2013-01-21 08:23:00,25.0,-1.0,-100.00,NNW,343,2.0,5.0,31,0.00,,,0.00,,2013-01-21 15:23:00,
2013-01-21 08:33:00,25.0,-1.0,-100.00,NNW,343,2.0,5.0,31,0.00,,,0.00,,2013-01-21 15:33:00,
2013-01-21 08:43:00,25.0,-1.0,-100.00,NNW,343,2.0,5.0,31,0.00,,,0.00,,2013-01-21 15:43:00,
2013-01-21 08:53:00,25.0,-1.0,-100.00,NNW,343,2.0,5.0,31,0.00,,,0.00,,2013-01-21 15:53:00,
2013-01-21 09:23:00,31.0,0.0,-100.00,East,94,3.0,7.0,26,0.00,,,0.00,,2013-01-21 16:23:00,
2013-01-21 09:33:00,31.0,0.0,-100.00,East,94,3.0,7.0,26,0.00,,,0.00,,2013-01-21 16:33:00,
2013-01-21 09:43:00,31.0,0.0,-100.00,East,94,3.0,7.0,26,0.00,,,0.00,,2013-01-21 16:43:00,
2013-01-21 09:53:00,31.0,0.0,-100.00,East,94,3.0,7.0,26,0.00,,,0.00,,2013-01-21 16:53:00,
2013-01-21 10:23:00,35.0,1.0,-100.00,East,99,5.0,9.0,23,0.00,,,0.00,,2013-01-21 17:23:00,
2013-01-21 10:33:00,35.0,1.0,-100.00,East,99,5.0,9.0,23,0.00,,,0.00,,2013-01-21 17:33:00,
2013-01-21 10:43:00,35.0,1.0,-100.00,East,99,5.0,9.0,23,0.00,,,0.00,,2013-01-21 17:43:00,
2013-01-21 10:53:00,35.0,1.0,-100.00,East,99,5.0,9.0,23,0.00,,,0.00,,2013-01-21 17:53:00,
2013-01-21 11:22:00,38.0,3.0,-100.00,SE,130,5.0,10.0,22,0.00,,,0.00,,2013-01-21 18:22:00,
2013-01-21 11:33:00,38.0,3.0,-100.00,SE,130,5.0,10.0,22,0.00,,,0.00,,2013-01-21 18:33:00,
2013-01-21 11:42:00,38.0,3.0,-100.00,SE,130,5.0,10.0,22,0.00,,,0.00,,2013-01-21 18:42:00,
2013-01-21 11:52:00,38.0,3.0,-100.00,SE,130,5.0,10.0,22,0.00,,,0.00,,2013-01-21 18:52:00,
2013-01-21 12:22:00,41.0,4.0,-100.00,ESE,114,5.0,11.0,21,0.00,,,0.00,,2013-01-21 19:22:00,
2013-01-21 12:33:00,41.0,4.0,-100.00,ESE,114,5.0,11.0,21,0.00,,,0.00,,2013-01-21 19:33:00,
2013-01-21 12:43:00,41.0,4.0,-100.00,ESE,114,5.0,11.0,21,0.00,,,0.00,,2013-01-21 19:43:00,
2013-01-21 12:53:00,41.0,4.0,-100.00,ESE,114,5.0,11.0,21,0.00,,,0.00,,2013-01-21 19:53:00,
2013-01-21 13:23:00,42.0,4.0,-100.00,East,87,4.0,12.0,20,0.00,,,0.00,,2013-01-21 20:23:00,
2013-01-21 13:33:00,42.0,4.0,-100.00,East,87,4.0,12.0,20,0.00,,,0.00,,2013-01-21 20:33:00,
2013-01-21 13:43:00,42.0,4.0,-100.00,East,87,4.0,12.0,20,0.00,,,0.00,,2013-01-21 20:43:00,
2013-01-21 13:53:00,42.0,4.0,-100.00,East,87,4.0,12.0,20,0.00,,,0.00,,2013-01-21 20:53:00,
2013-01-21 14:23:00,44.0,3.0,-100.00,East,85,3.0,22.0,18,0.00,,,0.00,,2013-01-21 21:23:00,
2013-01-21 14:33:00,44.0,3.0,-100.00,East,85,3.0,22.0,18,0.00,,,0.00,,2013-01-21 21:33:00,
2013-01-21 14:43:00,44.0,3.0,-100.00,East,85,3.0,22.0,18,0.00,,,0.00,,2013-01-21 21:43:00,
2013-01-21 14:53:00,44.0,3.0,-100.00,East,85,3.0,22.0,18,0.00,,,0.00,,2013-01-21 21:53:00,
2013-01-21 15:23:00,43.0,4.0,-100.00,SSW,210,7.0,16.0,19,0.00,,,0.00,,2013-01-21 22:23:00,
2013-01-21 15:33:00,43.0,4.0,-100.00,SSW,210,7.0,16.0,19,0.00,,,0.00,,2013-01-21 22:33:00,
2013-01-21 15:43:00,43.0,4.0,-100.00,SSW,210,7.0,16.0,19,0.00,,,0.00,,2013-01-21 22:43:00,
2013-01-21 15:52:00,43.0,4.0,-100.00,SSW,210,7.0,16.0,19,0.00,,,0.00,,2013-01-21 22:52:00,
2013-01-21 16:23:00,39.0,2.0,-100.00,WSW,237,11.0,24.0,21,0.00,,,0.00,,2013-01-21 23:23:00,
2013-01-21 16:33:00,39.0,2.0,-100.00,WSW,237,11.0,24.0,21,0.00,,,0.00,,2013-01-21 23:33:00,
2013-01-21 16:42:00,39.0,2.0,-100.00,WSW,237,11.0,24.0,21,0.00,,,0.00,,2013-01-21 23:42:00,
2013-01-21 16:53:00,39.0,2.0,-100.00,WSW,237,11.0,24.0,21,0.00,,,0.00,,2013-01-21 23:53:00,
2013-01-21 17:22:00,34.0,1.0,-100.00,SW,220,11.0,25.0,24,0.00,,,0.00,,2013-01-22 00:22:00,
2013-01-21 17:33:00,34.0,1.0,-100.00,SW,220,11.0,25.0,24,0.00,,,0.00,,2013-01-22 00:33:00,
2013-01-21 17:43:00,34.0,1.0,-100.00,SW,220,11.0,25.0,24,0.00,,,0.00,,2013-01-22 00:43:00,
2013-01-21 17:53:00,34.0,1.0,-100.00,SW,220,11.0,25.0,24,0.00,,,0.00,,2013-01-22 00:53:00,
2013-01-21 18:23:00,31.0,-1.0,-100.00,SW,219,13.0,26.0,25,0.00,,,0.00,,2013-01-22 01:23:00,
2013-01-21 18:32:00,31.0,-1.0,-100.00,SW,219,13.0,26.0,25,0.00,,,0.00,,2013-01-22 01:32:00,
2013-01-21 18:42:00,31.0,-1.0,-100.00,SW,219,13.0,26.0,25,0.00,,,0.00,,2013-01-22 01:42:00,
2013-01-21 18:52:00,31.0,-1.0,-100.00,SW,219,13.0,26.0,25,0.00,,,0.00,,2013-01-22 01:52:00,
2013-01-21 19:22:00,31.0,0.0,-100.00,SW,223,12.0,26.0,26,0.00,,,0.00,,2013-01-22 02:22:00,
2013-01-21 19:32:00,31.0,0.0,-100.00,SW,223,12.0,26.0,26,0.00,,,0.00,,2013-01-22 02:32:00,
2013-01-21 19:43:00,31.0,0.0,-100.00,SW,223,12.0,26.0,26,0.00,,,0.00,,2013-01-22 02:43:00,
2013-01-21 19:53:00,31.0,0.0,-100.00,SW,223,12.0,26.0,26,0.00,,,0.00,,2013-01-22 02:53:00,
2013-01-21 20:22:00,31.0,-2.0,-100.00,SW,232,9.0,22.0,23,0.00,,,0.00,,2013-01-22 03:22:00,
2013-01-21 20:32:00,31.0,-2.0,-100.00,SW,232,9.0,22.0,23,0.00,,,0.00,,2013-01-22 03:32:00,
2013-01-21 20:42:00,31.0,-2.0,-100.00,SW,232,9.0,22.0,23,0.00,,,0.00,,2013-01-22 03:42:00,
2013-01-21 20:52:00,31.0,-2.0,-100.00,SW,232,9.0,22.0,23,0.00,,,0.00,,2013-01-22 03:52:00,
2013-01-21 21:22:00,31.0,-5.0,-100.00,SW,230,9.0,22.0,20,0.00,,,0.00,,2013-01-22 04:22:00,
2013-01-21 21:32:00,31.0,-5.0,-100.00,SW,230,9.0,22.0,20,0.00,,,0.00,,2013-01-22 04:32:00,
2013-01-21 21:42:00,31.0,-5.0,-100.00,SW,230,9.0,22.0,20,0.00,,,0.00,,2013-01-22 04:42:00,
2013-01-21 21:52:00,31.0,-5.0,-100.00,SW,230,9.0,22.0,20,0.00,,,0.00,,2013-01-22 04:52:00,
2013-01-21 22:22:00,30.0,-7.0,-100.00,WNW,294,6.0,20.0,19,0.00,,,0.00,,2013-01-22 05:22:00,
2013-01-21 22:32:00,30.0,-7.0,-100.00,WNW,294,6.0,20.0,19,0.00,,,0.00,,2013-01-22 05:32:00,
2013-01-21 22:42:00,30.0,-7.0,-100.00,WNW,294,6.0,20.0,19,0.00,,,0.00,,2013-01-22 05:42:00,
2013-01-21 22:52:00,30.0,-7.0,-100.00,WNW,294,6.0,20.0,19,0.00,,,0.00,,2013-01-22 05:52:00,
2013-01-21 23:22:00,27.0,-10.0,-100.00,NNW,348,3.0,10.0,19,0.00,,,0.00,,2013-01-22 06:22:00,
2013-01-21 23:32:00,27.0,-10.0,-100.00,NNW,348,3.0,10.0,19,0.00,,,0.00,,2013-01-22 06:32:00,
2013-01-21 23:42:00,27.0,-10.0,-100.00,NNW,348,3.0,10.0,19,0.00,,,0.00,,2013-01-22 06:42:00,
2013-01-21 23:52:00,27.0,-10.0,-100.00,NNW,348,3.0,10.0,19,0.00,,,0.00,,2013-01-22 06:52:00,